Terug naar catalogus

KUIPER-00108

ActiefCommunicatieLEO
NORAD 65146·PAYLOAD·🇺🇸 United States

Gelanceerd Aug 11, 2025 vanaf Cape Canaveral Space Force Station

Loading…

Volgende Passages (komende 24 uur)

TLE

VersSource: CelesTrak SupGP

Epoch: Sep 14, 2026, 21:39 UTC

1 65146C 25171Q   26257.90252315  .00007677  00000+0  10049-2 0  2576
2 65146  51.9024  43.9464 0000551 111.1071 118.0367 14.79924652    14

Volg KUIPER-00108 in realtime met AllMySat

Download on the App Store